JA1KWV-11 Weather Reports


Display with metric or nautical units.
time (UTC)temp
F
wind
direction
speed
MPH
gust
MPH
rain 1hr
in
rain 24hr
in
rain mn
in
humidity
%
barometer
mb
20260507165456 79 267 0.0 0.0 0.00 0.00 0.00 78 1007.6
20260507164656 79 267 0.0 0.0 0.00 0.00 0.00 78 1007.6
20260507163856 79 267 0.0 0.0 0.00 0.00 0.00 79 1007.7
20260507163056 79 267 0.0 0.0 0.00 0.00 0.00 79 1007.9
20260507162255 79 267 0.0 0.0 0.00 0.00 0.00 79 1008.0
20260507161455 79 267 0.0 0.0 0.00 0.00 0.00 78 1007.9
20260507160655 79 267 0.0 0.0 0.00 0.00 0.00 80 1008.0
20260507155855 79 267 0.0 0.0 0.00 0.00 0.00 80 1008.1
20260507155055 79 267 0.0 0.0 0.00 0.00 0.00 79 1008.0
20260507154254 79 267 0.0 0.0 0.00 0.00 0.00 79 1008.2
20260507153454 79 267 0.0 0.0 0.00 0.00 0.00 78 1008.4
20260507152654 79 267 0.0 0.0 0.00 0.00 0.00 79 1008.1
20260507151854 79 267 0.0 0.0 0.00 0.00 0.00 79 1008.3
20260507151054 79 267 0.0 0.0 0.00 0.00 0.00 78 1008.5
20260507150253 79 267 0.0 0.0 0.00 0.00 0.00 80 1008.6
20260507145453 79 267 0.0 0.0 0.00 0.00 0.00 79 1008.7
20260507144653 79 267 0.0 0.0 0.00 0.00 0.00 80 1008.7
20260507143853 79 267 0.0 0.0 0.00 0.00 0.00 80 1008.8
20260507143052 79 267 0.0 0.0 0.00 0.00 0.00 79 1008.8
20260507142252 79 267 0.0 0.0 0.00 0.00 0.00 80 1008.6
20260507141452 79 267 0.0 0.0 0.00 0.00 0.00 80 1008.7
20260507140652 79 267 0.0 0.0 0.00 0.00 0.00 79 1008.7
20260507135852 79 267 0.0 0.0 0.00 0.00 0.00 80 1009.0
20260507135051 79 267 0.0 0.0 0.00 0.00 0.00 80 1008.8
20260507134251 79 267 0.0 0.0 0.00 0.00 0.00 80 1009.0
20260507133451 79 267 0.0 0.0 0.00 0.00 0.00 80 1008.8
20260507132651 79 267 0.0 0.0 0.00 0.00 0.00 80 1008.7
20260507131850 79 267 0.0 0.0 0.00 0.00 0.00 80 1008.8
20260507131050 79 267 0.0 0.0 0.00 0.00 0.00 80 1008.8
20260507130250 79 267 0.0 0.0 0.00 0.00 0.00 80 1008.8
20260507125450 79 267 0.0 0.0 0.00 0.00 0.00 80 1009.0
20260507124650 79 267 0.0 0.0 0.00 0.00 0.00 80 1008.8
20260507123849 79 267 0.0 0.0 0.00 0.00 0.00 80 1009.0
20260507123049 79 267 0.0 0.0 0.00 0.00 0.00 81 1009.0
20260507122249 79 267 0.0 0.0 0.00 0.00 0.00 80 1009.0
20260507121449 79 267 0.0 0.0 0.00 0.00 0.00 81 1009.1
20260507120649 79 267 0.0 0.0 0.00 0.00 0.00 81 1008.8
20260507115848 79 267 0.0 0.0 0.00 0.00 0.00 81 1008.8
20260507115048 79 267 0.0 0.0 0.00 0.00 0.00 81 1009.1
20260507114248 79 267 0.0 0.0 0.00 0.00 0.00 80 1008.9
20260507113448 79 267 0.0 0.0 0.00 0.00 0.00 81 1008.9
20260507112647 79 267 0.0 0.0 0.00 0.00 0.00 80 1008.9
20260507111847 79 267 0.0 0.0 0.00 0.00 0.00 81 1008.9
20260507111047 79 267 0.0 0.0 0.00 0.00 0.00 81 1008.8
20260507110247 79 267 0.0 0.0 0.00 0.00 0.00 82 1008.9
20260507105447 79 267 0.0 0.0 0.00 0.00 0.00 82 1008.7
20260507104646 79 267 0.0 0.0 0.00 0.00 0.00 83 1008.7
20260507103846 79 267 0.0 0.0 0.00 0.00 0.00 81 1008.7
20260507103046 79 267 0.0 0.0 0.00 0.00 0.00 82 1008.8
20260507102246 79 267 0.0 0.0 0.00 0.00 0.00 83 1008.7
20260507101445 79 267 0.0 0.0 0.00 0.00 0.00 83 1008.7
20260507100645 79 267 0.0 0.0 0.00 0.00 0.00 83 1008.6
20260507095845 79 267 0.0 0.0 0.00 0.00 0.00 83 1008.4
20260507095045 79 267 0.0 0.0 0.00 0.00 0.00 85 1008.4
20260507094244 79 267 0.0 0.0 0.00 0.00 0.00 85 1008.3
20260507093444 79 267 0.0 0.0 0.00 0.00 0.00 84 1008.5
20260507092644 79 267 0.0 0.0 0.00 0.00 0.00 83 1008.5
20260507091845 79 267 0.0 0.0 0.00 0.00 0.00 82 1008.3
20260507091044 79 267 0.0 0.0 0.00 0.00 0.00 81 1008.2
20260507090243 79 267 0.0 0.0 0.00 0.00 0.00 82 1008.4
20260507085443 79 267 0.0 0.0 0.00 0.00 0.00 80 1008.6
20260507084643 80 267 0.0 0.0 0.00 0.00 0.00 80 1008.6
20260507083843 79 267 0.0 0.0 0.00 0.00 0.00 79 1008.6
20260507083043 79 267 0.0 0.0 0.00 0.00 0.00 80 1008.4
20260507082242 79 267 0.0 0.0 0.00 0.00 0.00 79 1008.5
20260507081442 79 267 0.0 0.0 0.00 0.00 0.00 79 1008.5
20260507080642 79 267 0.0 0.0 0.00 0.00 0.00 79 1008.6
20260507075842 79 267 0.0 0.0 0.00 0.00 0.00 80 1008.6
20260507075041 79 267 0.0 0.0 0.00 0.00 0.00 80 1008.7
20260507074241 79 267 0.0 0.0 0.00 0.00 0.00 78 1008.8
20260507073441 79 267 0.0 0.0 0.00 0.00 0.00 75 1008.8
20260507072641 79 267 0.0 0.0 0.00 0.00 0.00 75 1008.8
20260507071840 79 267 0.0 0.0 0.00 0.00 0.00 75 1008.9
20260507071040 79 267 0.0 0.0 0.00 0.00 0.00 74 1008.9
20260507070240 79 267 0.0 0.0 0.00 0.00 0.00 75 1008.9
20260507065440 79 267 0.0 0.0 0.00 0.00 0.00 75 1009.0
20260507064640 79 267 0.0 0.0 0.00 0.00 0.00 75 1009.1
20260507063839 79 267 0.0 0.0 0.00 0.00 0.00 75 1009.0
20260507063039 79 267 0.0 0.0 0.00 0.00 0.00 74 1008.9
20260507062239 79 267 0.0 0.0 0.00 0.00 0.00 75 1009.0
20260507061439 79 267 0.0 0.0 0.00 0.00 0.00 74 1009.1
20260507060639 79 267 0.0 0.0 0.00 0.00 0.00 74 1009.2
20260507055838 79 267 0.0 0.0 0.00 0.00 0.00 74 1009.5
20260507055038 79 267 0.0 0.0 0.00 0.00 0.00 75 1009.6
20260507054238 79 267 0.0 0.0 0.00 0.00 0.00 75 1009.7
20260507053438 79 267 0.0 0.0 0.00 0.00 0.00 75 1009.7
20260507052638 79 267 0.0 0.0 0.00 0.00 0.00 74 1009.8
20260507051837 79 267 0.0 0.0 0.00 0.00 0.00 75 1009.9
20260507051037 79 267 0.0 0.0 0.00 0.00 0.00 74 1010.0
20260507050237 79 267 0.0 0.0 0.00 0.00 0.00 74 1010.0
20260507045437 79 267 0.0 0.0 0.00 0.00 0.00 74 1010.4
20260507044636 79 267 0.0 0.0 0.00 0.00 0.00 74 1010.5
20260507043836 79 267 0.0 0.0 0.00 0.00 0.00 74 1010.6
20260507043036 79 267 0.0 0.0 0.00 0.00 0.00 73 1010.8
20260507042236 79 267 0.0 0.0 0.00 0.00 0.00 73 1010.9
20260507041435 79 267 0.0 0.0 0.00 0.00 0.00 73 1011.1
20260507040635 79 267 0.0 0.0 0.00 0.00 0.00 73 1011.1
20260507035835 79 267 0.0 0.0 0.00 0.00 0.00 73 1011.2
20260507035035 79 267 0.0 0.0 0.00 0.00 0.00 73 1011.1
20260507034235 79 267 0.0 0.0 0.00 0.00 0.00 73 1011.4
20260507033434 79 267 0.0 0.0 0.00 0.00 0.00 73 1011.6
20260507032634 79 267 0.0 0.0 0.00 0.00 0.00 72 1011.7
20260507031834 79 267 0.0 0.0 0.00 0.00 0.00 72 1011.8
20260507031034 79 267 0.0 0.0 0.00 0.00 0.00 73 1011.8
20260507030234 79 267 0.0 0.0 0.00 0.00 0.00 72 1011.9
20260507025433 79 267 0.0 0.0 0.00 0.00 0.00 72 1012.0
20260507024633 79 267 0.0 0.0 0.00 0.00 0.00 73 1012.0
20260507023833 79 267 0.0 0.0 0.00 0.00 0.00 70 1012.2
20260507023033 79 267 0.0 0.0 0.00 0.00 0.00 72 1012.0
20260507022232 79 267 0.0 0.0 0.00 0.00 0.00 72 1012.2
20260507021432 79 267 0.0 0.0 0.00 0.00 0.00 71 1012.2
20260507020632 79 267 0.0 0.0 0.00 0.00 0.00 72 1012.3
20260507015832 79 267 0.0 0.0 0.00 0.00 0.00 72 1012.6
20260507015032 79 267 0.0 0.0 0.00 0.00 0.00 71 1012.6
20260507014231 79 267 0.0 0.0 0.00 0.00 0.00 72 1012.7
20260507013431 79 267 0.0 0.0 0.00 0.00 0.00 72 1013.0
20260507012631 79 267 0.0 0.0 0.00 0.00 0.00 71 1013.1
20260507011831 79 267 0.0 0.0 0.00 0.00 0.00 72 1013.1
20260507011030 79 267 0.0 0.0 0.00 0.00 0.00 72 1013.1
20260507010230 79 267 0.0 0.0 0.00 0.00 0.00 73 1013.2
20260507005430 79 267 0.0 0.0 0.00 0.00 0.00 73 1013.2
20260507004630 79 267 0.0 0.0 0.00 0.00 0.00 71 1013.1
20260507003830 79 267 0.0 0.0 0.00 0.00 0.00 73 1013.5
20260507003029 79 267 0.0 0.0 0.00 0.00 0.00 73 1013.6
20260507002229 79 267 0.0 0.0 0.00 0.00 0.00 73 1013.7
20260507001429 79 267 0.0 0.0 0.00 0.00 0.00 73 1013.8
20260507000629 79 267 0.0 0.0 0.00 0.00 0.00 73 1013.7
20260506235829 79 267 0.0 0.0 0.00 0.00 0.00 74 1013.9
20260506235028 78 267 0.0 0.0 0.00 0.00 0.00 73 1014.0
20260506234228 78 267 0.0 0.0 0.00 0.00 0.00 74 1014.0
20260506233428 78 267 0.0 0.0 0.00 0.00 0.00 74 1014.2
20260506232628 78 267 0.0 0.0 0.00 0.00 0.00 73 1014.0
20260506231827 78 267 0.0 0.0 0.00 0.00 0.00 74 1014.3
20260506231027 78 267 0.0 0.0 0.00 0.00 0.00 74 1014.2
20260506230227 78 267 0.0 0.0 0.00 0.00 0.00 74 1014.4
20260506225427 77 267 0.0 0.0 0.00 0.00 0.00 74 1014.3
20260506224626 77 267 0.0 0.0 0.00 0.00 0.00 74 1014.5
20260506223826 77 267 0.0 0.0 0.00 0.00 0.00 74 1014.4
20260506223026 77 267 0.0 0.0 0.00 0.00 0.00 72 1014.6
20260506222226 77 267 0.0 0.0 0.00 0.00 0.00 74 1014.7
20260506221426 77 267 0.0 0.0 0.00 0.00 0.00 74 1014.6
20260506220625 77 267 0.0 0.0 0.00 0.00 0.00 74 1015.0
20260506215825 76 267 0.0 0.0 0.00 0.00 0.00 74 1015.0
20260506215025 76 267 0.0 0.0 0.00 0.00 0.00 74 1014.9
20260506214225 76 267 0.0 0.0 0.00 0.00 0.00 73 1015.1
20260506213425 76 267 0.0 0.0 0.00 0.00 0.00 75 1015.2
20260506212624 76 267 0.0 0.0 0.00 0.00 0.00 74 1015.2
20260506211824 76 267 0.0 0.0 0.00 0.00 0.00 73 1015.0
20260506211024 76 267 0.0 0.0 0.00 0.00 0.00 74 1014.9
20260506210224 76 267 0.0 0.0 0.00 0.00 0.00 74 1015.0
20260506205423 76 267 0.0 0.0 0.00 0.00 0.00 74 1015.2
20260506204623 75 267 0.0 0.0 0.00 0.00 0.00 74 1015.1
20260506203823 75 267 0.0 0.0 0.00 0.00 0.00 74 1015.0
20260506203023 75 267 0.0 0.0 0.00 0.00 0.00 75 1015.0
20260506202222 75 267 0.0 0.0 0.00 0.00 0.00 75 1015.0
20260506201422 75 267 0.0 0.0 0.00 0.00 0.00 74 1014.9
20260506200622 75 267 0.0 0.0 0.00 0.00 0.00 75 1014.9
20260506195822 75 267 0.0 0.0 0.00 0.00 0.00 74 1014.9
20260506195022 75 267 0.0 0.0 0.00 0.00 0.00 75 1014.9
20260506194221 75 267 0.0 0.0 0.00 0.00 0.00 74 1014.8
20260506193421 75 267 0.0 0.0 0.00 0.00 0.00 75 1015.0
20260506192621 75 267 0.0 0.0 0.00 0.00 0.00 75 1015.1
20260506191821 75 267 0.0 0.0 0.00 0.00 0.00 75 1015.2
20260506191021 75 267 0.0 0.0 0.00 0.00 0.00 73 1015.4
20260506190220 76 267 0.0 0.0 0.00 0.00 0.00 74 1015.6
20260506185420 76 267 0.0 0.0 0.00 0.00 0.00 74 1015.6
20260506184620 75 267 0.0 0.0 0.00 0.00 0.00 73 1015.4
20260506183820 75 267 0.0 0.0 0.00 0.00 0.00 75 1015.3
20260506183019 76 267 0.0 0.0 0.00 0.00 0.00 74 1015.6
20260506182219 75 267 0.0 0.0 0.00 0.00 0.00 74 1015.6
20260506181419 76 267 0.0 0.0 0.00 0.00 0.00 75 1015.8
20260506180619 76 267 0.0 0.0 0.00 0.00 0.00 73 1015.5
20260506175819 76 267 0.0 0.0 0.00 0.00 0.00 74 1015.3
20260506175018 76 267 0.0 0.0 0.00 0.00 0.00 73 1015.4
20260506174218 76 267 0.0 0.0 0.00 0.00 0.00 75 1015.5
20260506173418 76 267 0.0 0.0 0.00 0.00 0.00 74 1015.6
20260506172618 76 267 0.0 0.0 0.00 0.00 0.00 74 1015.8
20260506171818 76 267 0.0 0.0 0.00 0.00 0.00 74 1015.7
20260506171017 76 267 0.0 0.0 0.00 0.00 0.00 75 1015.8
20260506170217 76 267 0.0 0.0 0.00 0.00 0.00 75 1015.9